| time (UTC) | temp F | wind direction | speed MPH | gust MPH | rain 1hr in | rain 24hr in | rain mn in | humidity % | barometer mb |
| 20260504060228 | 48 | 239 | 0.0 | 0.0 | 0.00 | 0.00 | 0.00 | 94 | 1018.6 |
| 20260504050731 | 49 | 251 | 0.0 | 0.0 | 0.00 | 0.00 | 0.00 | 93 | 1018.6 |
| 20260504050229 | 49 | 254 | 0.0 | 0.0 | 0.00 | 0.00 | 0.00 | 93 | 1018.6 |
| 20260504045727 | 49 | 245 | 0.0 | 0.0 | 0.00 | 0.00 | 0.00 | 93 | 1018.6 |
| 20260504045228 | 49 | 264 | 0.0 | 0.0 | 0.00 | 0.00 | 0.00 | 92 | 1018.6 |
| 20260504044727 | 49 | 337 | 0.0 | 0.0 | 0.00 | 0.00 | 0.00 | 92 | 1018.6 |
| 20260504044227 | 50 | 218 | 0.0 | 0.0 | 0.00 | 0.00 | 0.00 | 92 | 1018.6 |
| 20260504043727 | 50 | 220 | 0.0 | 0.0 | 0.00 | 0.00 | 0.00 | 92 | 1018.6 |
| 20260504043228 | 50 | 218 | 0.0 | 0.0 | 0.00 | 0.00 | 0.00 | 92 | 1018.6 |
| 20260504042729 | 50 | 216 | 0.0 | 0.0 | 0.00 | 0.00 | 0.00 | 92 | 1018.6 |
| 20260504042228 | 50 | 218 | 0.0 | 0.0 | 0.00 | 0.00 | 0.00 | 91 | 1018.6 |
| 20260504041729 | 50 | 215 | 0.0 | 0.0 | 0.00 | 0.00 | 0.00 | 91 | 1019.0 |
| 20260504041227 | 50 | 214 | 0.0 | 0.0 | 0.00 | 0.00 | 0.00 | 91 | 1018.6 |
| 20260504040727 | 50 | 212 | 0.0 | 0.0 | 0.00 | 0.00 | 0.00 | 91 | 1018.6 |
| 20260504040228 | 51 | 212 | 0.0 | 0.0 | 0.00 | 0.00 | 0.00 | 91 | 1018.6 |
| 20260504035728 | 51 | 212 | 0.0 | 0.0 | 0.00 | 0.00 | 0.00 | 90 | 1018.6 |
| 20260504035227 | 51 | 212 | 0.0 | 0.0 | 0.00 | 0.00 | 0.00 | 90 | 1018.6 |
| 20260504034727 | 51 | 212 | 0.0 | 0.0 | 0.00 | 0.00 | 0.00 | 90 | 1018.6 |
| 20260504034227 | 51 | 210 | 0.0 | 0.0 | 0.00 | 0.00 | 0.00 | 90 | 1018.6 |
| 20260504033727 | 51 | 210 | 0.0 | 0.0 | 0.00 | 0.00 | 0.00 | 90 | 1018.6 |
| 20260504033228 | 51 | 213 | 0.0 | 0.0 | 0.00 | 0.00 | 0.00 | 89 | 1018.6 |
| 20260504032728 | 51 | 212 | 0.0 | 0.0 | 0.00 | 0.00 | 0.00 | 89 | 1018.6 |
| 20260504032228 | 51 | 212 | 0.0 | 0.0 | 0.00 | 0.00 | 0.00 | 89 | 1019.0 |
| 20260504031728 | 51 | 213 | 0.0 | 0.0 | 0.00 | 0.00 | 0.00 | 89 | 1018.6 |
| 20260504030727 | 52 | 209 | 0.0 | 0.0 | 0.00 | 0.00 | 0.00 | 88 | 1019.0 |
| 20260504030227 | 52 | 210 | 0.0 | 0.0 | 0.00 | 0.00 | 0.00 | 87 | 1018.6 |
| 20260504025728 | 52 | 227 | 0.0 | 0.0 | 0.00 | 0.00 | 0.00 | 87 | 1018.6 |
| 20260504025227 | 52 | 201 | 0.0 | 0.0 | 0.00 | 0.00 | 0.00 | 86 | 1018.6 |
| 20260504024727 | 52 | 200 | 0.0 | 0.0 | 0.00 | 0.00 | 0.00 | 86 | 1018.6 |
| 20260504024227 | 52 | 198 | 0.0 | 0.0 | 0.00 | 0.00 | 0.00 | 85 | 1018.6 |
| 20260504023727 | 53 | 201 | 0.0 | 0.0 | 0.00 | 0.00 | 0.00 | 85 | 1018.6 |
| 20260504023227 | 53 | 200 | 0.0 | 0.0 | 0.00 | 0.00 | 0.00 | 85 | 1018.3 |
| 20260504022727 | 53 | 200 | 0.0 | 0.0 | 0.00 | 0.00 | 0.00 | 84 | 1018.6 |
| 20260504022230 | 53 | 200 | 0.0 | 0.0 | 0.00 | 0.00 | 0.00 | 84 | 1018.3 |
| 20260504021727 | 53 | 200 | 0.0 | 0.0 | 0.00 | 0.00 | 0.00 | 83 | 1018.3 |
| 20260504021227 | 54 | 200 | 0.0 | 0.0 | 0.00 | 0.00 | 0.00 | 83 | 1018.3 |
| 20260504020728 | 54 | 199 | 0.0 | 0.0 | 0.00 | 0.00 | 0.00 | 82 | 1018.3 |
| 20260504020230 | 54 | 196 | 0.0 | 0.0 | 0.00 | 0.00 | 0.00 | 82 | 1018.3 |
| 20260504015727 | 54 | 216 | 0.0 | 0.0 | 0.00 | 0.00 | 0.00 | 81 | 1018.3 |
| 20260504015227 | 55 | 226 | 0.0 | 0.0 | 0.00 | 0.00 | 0.00 | 80 | 1017.9 |
| 20260504014727 | 55 | 230 | 0.0 | 0.0 | 0.00 | 0.00 | 0.00 | 79 | 1018.3 |
| 20260504014227 | 55 | 231 | 0.0 | 0.0 | 0.00 | 0.00 | 0.00 | 78 | 1017.9 |
| 20260504013728 | 55 | 230 | 0.0 | 0.0 | 0.00 | 0.00 | 0.00 | 78 | 1017.9 |
| 20260504013228 | 55 | 229 | 0.0 | 0.0 | 0.00 | 0.00 | 0.00 | 77 | 1017.9 |
| 20260504012728 | 55 | 233 | 0.0 | 0.0 | 0.00 | 0.00 | 0.00 | 77 | 1017.9 |
| 20260504012227 | 55 | 188 | 0.0 | 0.0 | 0.00 | 0.00 | 0.00 | 76 | 1017.6 |
| 20260504011727 | 55 | 223 | 0.0 | 2.0 | 0.00 | 0.00 | 0.00 | 76 | 1017.6 |
| 20260504011227 | 54 | 207 | 0.0 | 2.0 | 0.00 | 0.00 | 0.00 | 75 | 1017.6 |
| 20260504010727 | 55 | 250 | 0.0 | 4.0 | 0.00 | 0.00 | 0.00 | 74 | 1017.6 |
| 20260504010228 | 55 | 250 | 0.0 | 4.0 | 0.00 | 0.00 | 0.00 | 73 | 1017.6 |
| 20260504005728 | 55 | 206 | 0.0 | 0.0 | 0.00 | 0.00 | 0.00 | 71 | 1017.3 |
| 20260504005228 | 55 | 205 | 0.0 | 0.0 | 0.00 | 0.00 | 0.00 | 71 | 1017.3 |
| 20260504004728 | 56 | 206 | 0.0 | 0.0 | 0.00 | 0.00 | 0.00 | 70 | 1017.3 |
| 20260504004228 | 56 | 206 | 0.0 | 0.0 | 0.00 | 0.00 | 0.00 | 70 | 1017.3 |
| 20260504003728 | 56 | 206 | 0.0 | 0.0 | 0.00 | 0.00 | 0.00 | 68 | 1017.3 |
| 20260504003227 | 57 | 207 | 0.0 | 0.0 | 0.00 | 0.00 | 0.00 | 67 | 1016.9 |
| 20260504002728 | 57 | 207 | 0.0 | 0.0 | 0.00 | 0.00 | 0.00 | 66 | 1016.9 |
| 20260504002227 | 58 | 46 | 0.0 | 0.0 | 0.00 | 0.00 | 0.00 | 64 | 1016.9 |
| 20260504001727 | 58 | 219 | 0.0 | 0.0 | 0.00 | 0.00 | 0.00 | 63 | 1016.9 |
| 20260504001228 | 59 | 219 | 0.0 | 0.0 | 0.00 | 0.00 | 0.00 | 62 | 1016.9 |
| 20260504000727 | 59 | 219 | 0.0 | 0.0 | 0.00 | 0.00 | 0.00 | 61 | 1016.6 |
| 20260504000227 | 60 | 220 | 0.0 | 0.0 | 0.00 | 0.00 | 0.00 | 59 | 1016.6 |
| 20260503235727 | 60 | 219 | 0.0 | 0.0 | 0.00 | 0.00 | 0.00 | 59 | 1016.6 |
| 20260503235228 | 61 | 222 | 0.0 | 0.0 | 0.00 | 0.00 | 0.00 | 58 | 1016.6 |
| 20260503234729 | 62 | 222 | 0.0 | 0.0 | 0.00 | 0.00 | 0.00 | 56 | 1016.6 |
| 20260503234227 | 62 | 222 | 0.0 | 0.0 | 0.00 | 0.00 | 0.00 | 54 | 1016.6 |
| 20260503233728 | 63 | 222 | 0.0 | 0.0 | 0.00 | 0.00 | 0.00 | 53 | 1016.6 |
| 20260503233228 | 64 | 240 | 0.0 | 0.0 | 0.00 | 0.00 | 0.00 | 53 | 1016.6 |
| 20260503232727 | 64 | 253 | 2.0 | 7.0 | 0.00 | 0.00 | 0.00 | 51 | 1016.6 |
| 20260503232227 | 65 | 230 | 0.0 | 2.0 | 0.00 | 0.00 | 0.00 | 49 | 1016.6 |
| 20260503231728 | 65 | 253 | 2.0 | 5.0 | 0.00 | 0.00 | 0.00 | 47 | 1016.6 |
| 20260503231229 | 65 | 268 | 2.0 | 5.0 | 0.00 | 0.00 | 0.00 | 46 | 1016.6 |
| 20260503230727 | 66 | 242 | 2.0 | 5.0 | 0.00 | 0.00 | 0.00 | 47 | 1016.6 |
| 20260503230228 | 66 | 219 | 7.0 | 11.0 | 0.00 | 0.00 | 0.00 | 43 | 1016.6 |
| 20260503225727 | 67 | 222 | 4.0 | 7.0 | 0.00 | 0.00 | 0.00 | 43 | 1016.6 |
| 20260503225228 | 67 | 253 | 2.0 | 5.0 | 0.00 | 0.00 | 0.00 | 43 | 1016.6 |
| 20260503224728 | 67 | 354 | 2.0 | 5.0 | 0.00 | 0.00 | 0.00 | 43 | 1016.6 |
| 20260503224228 | 67 | 266 | 4.0 | 7.0 | 0.00 | 0.00 | 0.00 | 43 | 1016.6 |
| 20260503223727 | 68 | 228 | 4.0 | 7.0 | 0.00 | 0.00 | 0.00 | 41 | 1016.6 |
| 20260503223227 | 67 | 264 | 4.0 | 13.0 | 0.00 | 0.00 | 0.00 | 44 | 1016.6 |
| 20260503222727 | 67 | 302 | 4.0 | 16.0 | 0.00 | 0.00 | 0.00 | 41 | 1016.6 |
| 20260503222227 | 67 | 86 | 2.0 | 7.0 | 0.00 | 0.00 | 0.00 | 41 | 1016.6 |
| 20260503221728 | 67 | 200 | 2.0 | 5.0 | 0.00 | 0.00 | 0.00 | 44 | 1016.3 |
| 20260503221227 | 67 | 150 | 4.0 | 5.0 | 0.00 | 0.00 | 0.00 | 42 | 1016.6 |
| 20260503220728 | 67 | 355 | 4.0 | 7.0 | 0.00 | 0.00 | 0.00 | 42 | 1016.6 |
| 20260503220227 | 68 | 24 | 4.0 | 7.0 | 0.00 | 0.00 | 0.00 | 41 | 1016.3 |
| 20260503215727 | 68 | 233 | 7.0 | 11.0 | 0.00 | 0.00 | 0.00 | 42 | 1016.3 |
| 20260503215228 | 68 | 222 | 9.0 | 14.0 | 0.00 | 0.00 | 0.00 | 40 | 1016.3 |
| 20260503214728 | 68 | 202 | 9.0 | 14.0 | 0.00 | 0.00 | 0.00 | 40 | 1016.3 |
| 20260503214228 | 68 | 32 | 7.0 | 13.0 | 0.00 | 0.00 | 0.00 | 39 | 1016.3 |
| 20260503213727 | 67 | 269 | 9.0 | 13.0 | 0.00 | 0.00 | 0.00 | 39 | 1016.3 |
| 20260503213228 | 68 | 214 | 4.0 | 9.0 | 0.00 | 0.00 | 0.00 | 39 | 1016.3 |
| 20260503212727 | 69 | 169 | 9.0 | 13.0 | 0.00 | 0.00 | 0.00 | 40 | 1016.3 |
| 20260503212229 | 68 | 223 | 9.0 | 18.0 | 0.00 | 0.00 | 0.00 | 40 | 1016.3 |
| 20260503211729 | 68 | 60 | 9.0 | 16.0 | 0.00 | 0.00 | 0.00 | 38 | 1016.3 |
| 20260503211227 | 68 | 242 | 11.0 | 18.0 | 0.00 | 0.00 | 0.00 | 40 | 1016.3 |
| 20260503210727 | 69 | 251 | 4.0 | 9.0 | 0.00 | 0.00 | 0.00 | 40 | 1016.3 |
| 20260503210228 | 69 | 346 | 7.0 | 11.0 | 0.00 | 0.00 | 0.00 | 38 | 1016.3 |
| 20260503205728 | 68 | 194 | 7.0 | 11.0 | 0.00 | 0.00 | 0.00 | 42 | 1016.3 |
| 20260503205227 | 69 | 354 | 4.0 | 13.0 | 0.00 | 0.00 | 0.00 | 41 | 1016.6 |
| 20260503204727 | 68 | 250 | 7.0 | 14.0 | 0.00 | 0.00 | 0.00 | 41 | 1016.6 |
| 20260503204228 | 68 | 224 | 11.0 | 18.0 | 0.00 | 0.00 | 0.00 | 38 | 1016.6 |
| 20260503203727 | 68 | 247 | 13.0 | 18.0 | 0.00 | 0.00 | 0.00 | 41 | 1016.6 |
| 20260503203227 | 69 | 73 | 9.0 | 14.0 | 0.00 | 0.00 | 0.00 | 39 | 1016.6 |
| 20260503202727 | 69 | 289 | 7.0 | 16.0 | 0.00 | 0.00 | 0.00 | 42 | 1016.6 |
| 20260503202227 | 69 | 289 | 7.0 | 16.0 | 0.00 | 0.00 | 0.00 | 42 | 1016.6 |
| 20260503201731 | 68 | 65 | 9.0 | 18.0 | 0.00 | 0.00 | 0.00 | 40 | 1016.6 |
| 20260503201227 | 69 | 13 | 7.0 | 11.0 | 0.00 | 0.00 | 0.00 | 41 | 1016.6 |
| 20260503200729 | 68 | 217 | 7.0 | 14.0 | 0.00 | 0.00 | 0.00 | 40 | 1016.6 |
| 20260503200231 | 68 | 287 | 7.0 | 11.0 | 0.00 | 0.00 | 0.00 | 40 | 1016.6 |
| 20260503195728 | 69 | 146 | 4.0 | 13.0 | 0.00 | 0.00 | 0.00 | 40 | 1016.9 |
| 20260503194727 | 68 | 11 | 9.0 | 13.0 | 0.00 | 0.00 | 0.00 | 41 | 1016.9 |
| 20260503194227 | 69 | 182 | 7.0 | 11.0 | 0.00 | 0.00 | 0.00 | 45 | 1016.9 |
| 20260503193729 | 68 | 276 | 7.0 | 14.0 | 0.00 | 0.00 | 0.00 | 44 | 1016.9 |
| 20260503193227 | 69 | 214 | 7.0 | 11.0 | 0.00 | 0.00 | 0.00 | 43 | 1016.9 |
| 20260503192728 | 68 | 357 | 4.0 | 13.0 | 0.00 | 0.00 | 0.00 | 39 | 1016.9 |
| 20260503192227 | 68 | 309 | 7.0 | 14.0 | 0.00 | 0.00 | 0.00 | 41 | 1016.9 |
| 20260503191727 | 67 | 230 | 9.0 | 13.0 | 0.00 | 0.00 | 0.00 | 42 | 1016.9 |
| 20260503191228 | 68 | 327 | 9.0 | 20.0 | 0.00 | 0.00 | 0.00 | 41 | 1017.3 |
| 20260503190727 | 66 | 345 | 13.0 | 20.0 | 0.00 | 0.00 | 0.00 | 41 | 1017.3 |
| 20260503190228 | 68 | 271 | 7.0 | 14.0 | 0.00 | 0.00 | 0.00 | 40 | 1017.6 |
| 20260503185728 | 68 | 65 | 4.0 | 16.0 | 0.00 | 0.00 | 0.00 | 42 | 1017.6 |
| 20260503185227 | 66 | 257 | 9.0 | 18.0 | 0.00 | 0.00 | 0.00 | 43 | 1017.6 |
| 20260503184728 | 66 | 197 | 9.0 | 14.0 | 0.00 | 0.00 | 0.00 | 44 | 1017.6 |
| 20260503184227 | 68 | 207 | 7.0 | 14.0 | 0.00 | 0.00 | 0.00 | 44 | 1017.6 |
| 20260503183727 | 66 | 218 | 11.0 | 18.0 | 0.00 | 0.00 | 0.00 | 43 | 1017.6 |
| 20260503183228 | 67 | 298 | 9.0 | 22.0 | 0.00 | 0.00 | 0.00 | 43 | 1017.6 |
| 20260503182727 | 66 | 13 | 9.0 | 16.0 | 0.00 | 0.00 | 0.00 | 47 | 1017.9 |
| 20260503182228 | 66 | 253 | 9.0 | 14.0 | 0.00 | 0.00 | 0.00 | 44 | 1017.9 |
| 20260503181728 | 66 | 240 | 9.0 | 16.0 | 0.00 | 0.00 | 0.00 | 48 | 1017.9 |
| 20260503181229 | 66 | 57 | 9.0 | 16.0 | 0.00 | 0.00 | 0.00 | 46 | 1017.9 |
| 20260503180729 | 65 | 63 | 7.0 | 16.0 | 0.00 | 0.00 | 0.00 | 43 | 1017.9 |
| 20260503180229 | 65 | 51 | 9.0 | 18.0 | 0.00 | 0.00 | 0.00 | 43 | 1017.9 |
| 20260503175732 | 65 | 190 | 9.0 | 18.0 | 0.00 | 0.00 | 0.00 | 42 | 1017.9 |
| 20260503175229 | 65 | 224 | 9.0 | 20.0 | 0.00 | 0.00 | 0.00 | 45 | 1017.9 |
| 20260503174728 | 64 | 221 | 13.0 | 23.0 | 0.00 | 0.00 | 0.00 | 43 | 1018.3 |
| 20260503174229 | 64 | 241 | 11.0 | 20.0 | 0.00 | 0.00 | 0.00 | 44 | 1018.3 |
| 20260503173727 | 65 | 183 | 7.0 | 16.0 | 0.00 | 0.00 | 0.00 | 49 | 1018.3 |
| 20260503173228 | 65 | 244 | 7.0 | 11.0 | 0.00 | 0.00 | 0.00 | 44 | 1018.3 |
| 20260503172728 | 63 | 225 | 7.0 | 14.0 | 0.00 | 0.00 | 0.00 | 47 | 1018.3 |
| 20260503172228 | 65 | 324 | 11.0 | 14.0 | 0.00 | 0.00 | 0.00 | 48 | 1018.3 |
| 20260503171728 | 64 | 304 | 9.0 | 16.0 | 0.00 | 0.00 | 0.00 | 46 | 1018.3 |
| 20260503171227 | 63 | 92 | 7.0 | 11.0 | 0.00 | 0.00 | 0.00 | 47 | 1018.3 |
| 20260503170728 | 63 | 104 | 7.0 | 14.0 | 0.00 | 0.00 | 0.00 | 46 | 1018.6 |
| 20260503170228 | 63 | 238 | 4.0 | 9.0 | 0.00 | 0.00 | 0.00 | 47 | 1018.6 |
| 20260503150729 | 58 | 168 | 15.0 | 22.0 | 0.00 | 0.00 | 0.00 | 49 | 1019.0 |
| 20260503150229 | 58 | 34 | 11.0 | 18.0 | 0.00 | 0.00 | 0.00 | 55 | 1019.0 |
| 20260503140229 | 54 | 32 | 9.0 | 13.0 | 0.00 | 0.00 | 0.00 | 72 | 1019.0 |
| 20260503131227 | 51 | 279 | 4.0 | 7.0 | 0.00 | 0.00 | 0.00 | 83 | 1018.6 |
| 20260503130727 | 51 | 38 | 4.0 | 11.0 | 0.00 | 0.00 | 0.00 | 84 | 1018.6 |
| 20260503130231 | 50 | 2 | 4.0 | 11.0 | 0.00 | 0.00 | 0.00 | 87 | 1018.6 |
| 20260503110729 | 44 | 239 | 0.0 | 2.0 | 0.00 | 0.00 | 0.00 | 100 | 1017.3 |
| 20260503110229 | 44 | 210 | 0.0 | 4.0 | 0.00 | 0.00 | 0.00 | 100 | 1017.3 |
| 20260503100229 | 45 | 210 | 0.0 | 0.0 | 0.00 | 0.00 | 0.00 | 100 | 1016.3 |
| 20260503090227 | 45 | 254 | 0.0 | 2.0 | 0.00 | 0.00 | 0.00 | 100 | 1015.6 |
| 20260503081228 | 45 | 220 | 0.0 | 2.0 | 0.00 | 0.00 | 0.00 | 100 | 1015.2 |
| 20260503080229 | 45 | 227 | 0.0 | 2.0 | 0.00 | 0.00 | 0.00 | 100 | 1014.9 |
| 20260503072730 | 46 | 231 | 0.0 | 0.0 | 0.00 | 0.00 | 0.00 | 100 | 1014.6 |
| 20260503072229 | 46 | 233 | 0.0 | 0.0 | 0.00 | 0.00 | 0.00 | 100 | 1014.6 |
| 20260503071730 | 47 | 228 | 0.0 | 0.0 | 0.00 | 0.00 | 0.00 | 100 | 1014.6 |
| 20260503071229 | 47 | 228 | 0.0 | 0.0 | 0.00 | 0.00 | 0.00 | 100 | 1014.6 |
| 20260503070729 | 47 | 231 | 0.0 | 0.0 | 0.00 | 0.00 | 0.00 | 100 | 1014.6 |
| 20260503070229 | 47 | 229 | 0.0 | 0.0 | 0.00 | 0.00 | 0.00 | 100 | 1014.6 |